Traverse City, MI

9:16 PM EST on February 24, 2017 (GMT -0500)
Cherry Capital

Weather History for KTVC - July, 2013

Change the Weather History Date:

Tuesday, July 2, 2013

  Actual Average Record
Temperature  
Mean Temperature 60 °F 68 °F  
Max Temperature 74 °F 80 °F 100 °F (1966)
Min Temperature 46 °F 57 °F 38 °F (2001)
Degree Days  
Heating Degree Days 5 1  
Month to date heating degree days 5 3  
Since 1 June heating degree days 107 115  
Since 1 July heating degree days 5 3  
Cooling Degree Days 0 5  
Month to date cooling degree days 1 10  
Year to date cooling degree days 130 111  
Since 1 June cooling degree days 88 91  
Growing Degree Days 10 (Base 50)    
Moisture  
Dew Point 47 °F    
Average Humidity 62    
Maximum Humidity 86    
Minimum Humidity 38    
Precipitation  
Precipitation 0.00 in 0.09 in 0.69 in (1973)
Month to date precipitation 0.00 0.19  
Year to date precipitation 13.76 14.90  
Sea Level Pressure  
Sea Level Pressure 30.12 in    
Wind  
Wind Speed 4 mph (NNE)    
Max Wind Speed 13 mph    
Max Gust Speed 17 mph    
Visibility 10 miles    
Events      
T = Trace of Precipitation, MM = Missing Value Source: NWS Daily Summary

Daily Weather History Graph

Daily Weather History Graph

Search for Another Location

Airport or City:

Trip Planner

Search our weather history database for the weather conditions in past years. The results will help you decide how hot, cold, wet, or windy it might be!

Date:

Astronomy

Jul. 02, 2013 Rise Set
Actual Time 6:01 AM EDT 9:31 PM EDT
Civil Twilight 5:24 AM EDT 10:08 PM EDT
Nautical Twilight 4:35 AM EDT 10:56 PM EDT
Astronomical Twilight 3:33 AM EDT 11:59 PM EDT
Moon 2:10 AM EDT (7/2) 4:38 PM EDT (7/2)
Length of Visible Light 16h 43m
Length of Day
15h 30m
Waning Crescent, 26% of the Moon is Illuminated
Jul 2
Waning Crescent
Jul 8
New
Jul 15
First Quarter
Jul 22
Full
Jul 29
Last Quarter

Hourly Weather History & Observations

Time (EDT) Temp. Dew Point Humidity Pressure Visibility Wind Dir Wind Speed Gust Speed Precip Events Conditions
12:53 AM 54.0 °F 44.1 °F 69% 30.15 in 10.0 mi Calm Calm - N/A   Clear
1:53 AM 50.0 °F 45.0 °F 83% 30.14 in 10.0 mi Calm Calm - N/A   Clear
2:53 AM 48.0 °F 42.1 °F 80% 30.13 in 10.0 mi Calm Calm - N/A   Clear
3:53 AM 48.0 °F 41.0 °F 77% 30.14 in 10.0 mi Calm Calm - N/A   Clear
4:53 AM 48.0 °F 41.0 °F 77% 30.15 in 10.0 mi Calm Calm - N/A   Clear
5:53 AM 46.9 °F 42.1 °F 83% 30.16 in 10.0 mi Calm Calm - N/A   Clear
6:53 AM 48.9 °F 43.0 °F 80% 30.15 in 10.0 mi Calm Calm - N/A   Mostly Cloudy
7:53 AM 53.1 °F 46.9 °F 80% 30.15 in 10.0 mi Calm Calm - N/A   Mostly Cloudy
8:53 AM 59.0 °F 46.0 °F 62% 30.15 in 10.0 mi ENE 5.8 mph - N/A   Mostly Cloudy
10:53 AM 66.0 °F 45.0 °F 47% 30.14 in 10.0 mi ENE 5.8 mph - N/A   Mostly Cloudy
11:53 AM 66.0 °F 46.9 °F 50% 30.14 in 10.0 mi Variable 3.5 mph - N/A   Mostly Cloudy
12:53 PM 69.1 °F 46.0 °F 44% 30.14 in 10.0 mi North 8.1 mph - N/A   Mostly Cloudy
1:53 PM 73.9 °F 48.9 °F 41% 30.13 in 10.0 mi North 8.1 mph - N/A   Mostly Cloudy
2:53 PM 73.0 °F 46.9 °F 39% 30.12 in 10.0 mi NNE 10.4 mph - N/A   Mostly Cloudy
3:53 PM 73.0 °F 46.9 °F 39% 30.11 in 10.0 mi NNE 9.2 mph - N/A   Mostly Cloudy
4:53 PM 72.0 °F 46.9 °F 41% 30.09 in 10.0 mi NNE 6.9 mph - N/A   Mostly Cloudy
5:53 PM 72.0 °F 48.0 °F 43% 30.09 in 10.0 mi NNE 5.8 mph - N/A   Mostly Cloudy
6:53 PM 72.0 °F 48.9 °F 44% 30.08 in 10.0 mi NNE 5.8 mph - N/A   Mostly Cloudy
7:53 PM 71.1 °F 50.0 °F 47% 30.08 in 10.0 mi North 3.5 mph - N/A   Mostly Cloudy
8:53 PM 70.0 °F 48.9 °F 47% 30.09 in 10.0 mi North 3.5 mph - N/A   Overcast
9:53 PM 69.1 °F 48.9 °F 49% 30.08 in 10.0 mi NNE 3.5 mph - N/A   Overcast
10:53 PM 68.0 °F 53.1 °F 59% 30.09 in 10.0 mi NE 4.6 mph - N/A   Overcast
11:53 PM 64.9 °F 54.0 °F 68% 30.09 in 10.0 mi Calm Calm - N/A   Mostly Cloudy